Weather History for Dayton, OH

Change the Weather History Date:

Thursday, October 10, 2013

  Actual Average Record
Temperature  
Mean Temperature 60 °F 56 °F  
Max Temperature 75 °F 66 °F 86 °F (1904)
Min Temperature 44 °F 46 °F 30 °F (1925)
Degree Days  
Heating Degree Days 5 10  
Month to date heating degree days 33 85  
Since 1 July heating degree days 100 175  
Cooling Degree Days 0 1  
Month to date cooling degree days 35 10  
Year to date cooling degree days 1062 891  
Growing Degree Days 10 (Base 50)    
Moisture  
Dew Point 43 °F    
Average Humidity 61    
Maximum Humidity 92    
Minimum Humidity 29    
Precipitation  
Precipitation 0.00 in 0.11 in 1.00 in (1909)
Month to date precipitation 3.22 0.98  
Year to date precipitation 27.83 32.59  
Snow  
Snow 0.00 in 0.10 in - ()
Month to date snowfall 0.0 0.1  
Since 1 July snowfall 0.0 0.1  
Since 1 September snowfall 0.0 0.1  
Snow Depth 0.00 in    
Sea Level Pressure  
Sea Level Pressure 30.16 in    
Wind  
Wind Speed 2 mph (East)    
Max Wind Speed 8 mph    
Max Gust Speed 10 mph    
Visibility 10 miles    
Events      
T = Trace of Precipitation, MM = Missing Value Source: NWS Daily Summary

Daily Weather History Graph

Daily Weather History Graph

Search for Another Location

Airport:

Trip Planner

Search our weather history database for the weather conditions in past years. The results will help you decide how hot, cold, wet, or windy it might be!

Date:

Astronomy

Oct. 10, 2013 Rise Set
Actual Time 7:42 AM EDT 7:04 PM EDT
Civil Twilight 7:15 AM EDT 7:31 PM EDT
Nautical Twilight 6:43 AM EDT 8:02 PM EDT
Astronomical Twilight 6:12 AM EDT 8:34 PM EDT
Moon 1:32 PM EDT (10/10) 11:41 PM EDT (10/10)
Length of Visible Light 12h 16m
Length of Day
11h 22m
Waxing Crescent, 35% of the Moon is Illuminated
Oct 10
Waxing Crescent
Oct 11
First Quarter
Oct 18
Full
Oct 26
Last Quarter
Nov 3
New

Hourly Weather History & Observations

Time (EDT) Temp. Dew Point Humidity Pressure Visibility Wind Dir Wind Speed Gust Speed Precip Events Conditions
12:56 AM 54.0 °F 43.0 °F 66% 30.19 in 10.0 mi ESE 4.6 mph - N/A   Clear
1:56 AM 52.0 °F 42.1 °F 69% 30.18 in 10.0 mi ESE 5.8 mph - N/A   Clear
2:56 AM 50.0 °F 42.1 °F 74% 30.18 in 10.0 mi Calm Calm - N/A   Clear
3:56 AM 50.0 °F 42.1 °F 74% 30.18 in 10.0 mi Calm Calm - N/A   Clear
4:56 AM 45.0 °F 41.0 °F 86% 30.19 in 10.0 mi Calm Calm - N/A   Clear
5:56 AM 45.0 °F 42.1 °F 90% 30.20 in 10.0 mi Calm Calm - N/A   Clear
6:56 AM 45.0 °F 43.0 °F 93% 30.20 in 10.0 mi Calm Calm - N/A   Clear
7:56 AM 45.0 °F 42.1 °F 90% 30.21 in 10.0 mi Calm Calm - N/A   Partly Cloudy
8:56 AM 51.1 °F 46.0 °F 83% 30.22 in 10.0 mi East 5.8 mph - N/A   Clear
9:56 AM 55.9 °F 45.0 °F 67% 30.21 in 10.0 mi East 3.5 mph - N/A   Clear
10:56 AM 63.0 °F 46.0 °F 54% 30.21 in 10.0 mi Calm Calm - N/A   Clear
11:56 AM 68.0 °F 43.0 °F 40% 30.21 in 10.0 mi East 3.5 mph - N/A   Clear
12:56 PM 68.0 °F 42.1 °F 39% 30.20 in 10.0 mi Calm Calm - N/A   Clear
1:56 PM 71.1 °F 43.0 °F 36% 30.17 in 10.0 mi NNE 3.5 mph - N/A   Clear
2:56 PM 72.0 °F 41.0 °F 33% 30.15 in 10.0 mi East 4.6 mph - N/A   Clear
3:56 PM 73.0 °F 41.0 °F 31% 30.14 in 10.0 mi Calm Calm - N/A   Clear
4:56 PM 73.9 °F 39.9 °F 29% 30.12 in 10.0 mi Calm Calm - N/A   Clear
5:56 PM 73.9 °F 39.9 °F 29% 30.11 in 10.0 mi Calm Calm - N/A   Clear
6:56 PM 68.0 °F 44.1 °F 42% 30.11 in 10.0 mi SSW 5.8 mph - N/A   Clear
7:56 PM 62.1 °F 46.0 °F 56% 30.12 in 10.0 mi Calm Calm - N/A   Clear
8:56 PM 60.1 °F 46.0 °F 60% 30.10 in 10.0 mi Calm Calm - N/A   Clear
9:56 PM 57.9 °F 45.0 °F 62% 30.10 in 10.0 mi Calm Calm - N/A   Clear
10:56 PM 57.9 °F 45.0 °F 62% 30.10 in 10.0 mi Calm Calm - N/A   Clear
11:56 PM 57.0 °F 42.1 °F 57% 30.09 in 10.0 mi NE 5.8 mph - N/A   Clear